DW1024 Weather Reports


time (UTC)temp
F
wind
direction
speed
knots
gust
knots
rain 1hr
in
rain 24hr
in
rain mn
in
humidity
%
barometer
mb
20260905024805 71 188 1.7 6.1 0.00 0.00 0.00 67 1019.5
20260905023313 72 284 1.7 6.1 0.00 0.00 0.00 66 1019.2
20260905021802 72 269 0.9 7.0 0.00 0.00 0.00 66 1019.1
20260905020306 71 271 1.7 3.5 0.00 0.00 0.00 66 1019.0
20260905014803 72 234 1.7 5.2 0.00 0.00 0.00 65 1019.0
20260905013305 72 248 0.0 3.5 0.00 0.00 0.00 65 1018.8
20260905011812 72 300 0.9 3.5 0.00 0.00 0.00 64 1018.9
20260905010304 73 206 0.9 5.2 0.00 0.00 0.00 63 1018.8
20260905004805 74 275 1.7 7.8 0.00 0.00 0.00 61 1018.7
20260905003303 74 250 1.7 6.1 0.00 0.00 0.00 61 1018.8
20260905001804 73 229 1.7 6.1 0.00 0.00 0.00 61 1018.6
20260905000304 74 244 1.7 5.2 0.00 0.00 0.00 60 1018.3
20260904234801 74 265 1.7 5.2 0.00 0.00 0.00 60 1018.2
20260904233303 75 193 1.7 6.1 0.00 0.00 0.00 59 1018.2
20260904231803 75 218 2.6 8.7 0.00 0.00 0.00 58 1018.2
20260904230302 75 233 2.6 7.0 0.00 0.00 0.00 57 1018.2
20260904223300 75 290 1.7 3.5 0.00 0.00 0.00 57 1018.1
20260904221801 75 167 1.7 4.3 0.00 0.00 0.00 55 1017.9
20260904214804 76 202 2.6 8.7 0.00 0.00 0.00 54 1017.8
20260904213300 76 209 1.7 7.0 0.00 0.00 0.00 54 1017.7
20260904211801 76 218 1.7 6.1 0.00 0.00 0.00 53 1017.6
20260904210305 76 307 2.6 7.0 0.00 0.00 0.00 53 1017.7
20260904204801 76 276 1.7 5.2 0.00 0.00 0.00 53 1017.6
20260904203300 76 249 1.7 6.1 0.00 0.00 0.00 53 1017.6
20260904201801 74 234 0.9 3.5 0.00 0.00 0.00 54 1017.4
20260904200259 74 257 0.9 2.6 0.00 0.00 0.00 54 1017.4
20260904194759 74 242 0.9 4.3 0.00 0.00 0.00 54 1017.3
20260904193302 75 234 0.9 3.5 0.00 0.00 0.00 53 1017.3
20260904184759 77 255 0.9 3.5 0.00 0.00 0.00 50 1017.3
20260904183256 77 242 1.7 6.1 0.00 0.00 0.00 49 1017.0
20260904181756 78 214 0.9 2.6 0.00 0.00 0.00 48 1016.9
20260904180300 79 225 0.9 6.1 0.00 0.00 0.00 46 1016.8
20260904173257 81 236 2.6 7.8 0.00 0.00 0.00 44 1016.3
20260904171756 82 233 2.6 7.0 0.00 0.00 0.00 42 1016.2
20260904170259 83 286 3.5 10.4 0.00 0.00 0.00 40 1016.2
20260904164757 84 284 3.5 11.3 0.00 0.00 0.00 39 1016.2
20260904163259 85 267 3.5 9.6 0.00 0.00 0.00 37 1016.1
20260904161758 86 93 4.3 13.9 0.00 0.00 0.00 36 1016.3
20260904160256 87 283 3.5 12.2 0.00 0.00 0.00 35 1016.3
20260904154758 87 234 3.5 11.3 0.00 0.00 0.00 36 1016.5
20260904153258 88 236 4.3 11.3 0.00 0.00 0.00 35 1016.6
20260904150256 89 224 4.3 11.3 0.00 0.00 0.00 34 1016.8
20260904144756 89 299 4.3 11.3 0.00 0.00 0.00 32 1016.9
20260904143252 89 206 5.2 14.8 0.00 0.00 0.00 32 1017.1
20260904141752 90 327 4.3 13.9 0.00 0.00 0.00 32 1017.0
20260904140251 90 279 4.3 13.9 0.00 0.00 0.00 31 1017.3
20260904134754 90 329 3.5 11.3 0.00 0.00 0.00 32 1017.2
20260904133605 90 252 3.5 10.4 0.00 0.00 0.00 33 1017.3
20260904133055 90 225 4.3 9.6 0.00 0.00 0.00 32 1017.6
20260904124752 89 172 4.3 11.3 0.00 0.00 0.00 35 1017.9
20260904123248 89 232 4.3 10.4 0.00 0.00 0.00 37 1018.1
20260904121750 88 176 3.5 7.8 0.00 0.00 0.00 37 1018.4
20260904120248 88 252 3.5 10.4 0.00 0.00 0.00 38 1018.6
20260904114750 88 131 2.6 9.6 0.00 0.00 0.00 37 1018.9
20260904110247 86 229 2.6 11.3 0.00 0.00 0.00 41 1019.7
20260904103246 84 194 3.5 10.4 0.00 0.00 0.00 42 1020.2
20260904101744 84 278 3.5 12.2 0.00 0.00 0.00 43 1020.6
20260904094751 82 294 3.5 8.7 0.00 0.00 0.00 45 1021.1
20260904093240 82 213 2.6 7.8 0.00 0.00 0.00 45 1021.2
20260904084741 79 221 2.6 7.8 0.00 0.00 0.00 49 1021.7
20260904083239 79 256 2.6 7.8 0.00 0.00 0.00 50 1021.8
20260904080239 78 244 0.9 5.2 0.00 0.00 0.00 53 1021.8
20260904073236 74 262 1.7 6.1 0.00 0.00 0.00 57 1022.3
20260904071736 73 265 1.7 5.2 0.00 0.00 0.00 60 1022.2
20260904070236 71 225 1.7 6.1 0.00 0.00 0.00 62 1022.2
20260904064733 68 262 0.9 3.5 0.00 0.00 0.00 67 1022.3
20260904063235 67 226 1.7 6.1 0.00 0.00 0.00 68 1022.3
20260904061733 67 265 1.7 4.3 0.00 0.00 0.00 69 1022.2
20260904060231 66 295 0.9 5.2 0.00 0.00 0.00 69 1022.4
20260904054731 65 281 0.9 1.7 0.00 0.00 0.00 72 1022.5
20260904053231 65 269 0.0 0.9 0.00 0.00 0.00 72 1022.4
20260904051733 64 269 0.0 0.9 0.00 0.00 0.00 73 1022.4
20260904050226 64 269 0.0 0.0 0.00 0.00 0.00 74 1022.4
20260904043226 64 269 0.0 0.9 0.00 0.00 0.00 72 1022.4
20260904041723 65 269 0.0 0.9 0.00 0.00 0.00 71 1022.5
20260904040222 65 269 0.0 0.9 0.00 0.00 0.00 71 1022.5
20260904034722 64 269 0.0 0.0 0.00 0.00 0.00 71 1022.7
20260904031728 66 269 0.0 0.9 0.00 0.00 0.00 67 1022.6
20260904030228 67 269 0.9 4.3 0.00 0.00 0.00 66 1022.7